Regional Weather Roundup
Issued by NWS

Home | Current Version | Previous Version | Graphics & Text | Print | Product List | Glossary On
Versions: 1 2 3 4 5 6 7 8 9 10 11 12 13 14 15 16 17 18 19 20 21 22 23 24 25 26 27 28 29 30 31 32 33 34 35 36 37 38 39 40 41 42 43 44 45 46 47 48 49 50
000
ASUS43 KBIS 301420
RWRND

NORTH DAKOTA REGIONAL WEATHER ROUNDUP
NATIONAL WEATHER SERVICE BISMARCK ND
900 AM CDT TUE SEP 30 2014

NOTE: "FAIR" INDICATES FEW OR NO CLOUDS BELOW 12,000 FEET WITH NO
SIGNIFICANT WEATHER AND/OR OBSTRUCTIONS TO VISIBILITY.


NDZ001>003-009>011-017-301500-
NORTHWEST NORTH DAKOTA

CITY           SKY/WX    TMP DP  RH WIND       PRES   REMARKS
WILLISTON      LGT RAIN  53  51  93 E3        29.69F
MINOT          CLOUDY    49  48  97 E14       29.76S FOG
MINOT AFB      DRIZZLE   49  49 100 SE13      29.76S FOG
$$

NDZ018>021-031>035-040>046-301500-
SOUTHWEST NORTH DAKOTA

CITY           SKY/WX    TMP DP  RH WIND       PRES   REMARKS
BISMARCK       CLOUDY    54  50  86 E15       29.72F
DICKINSON      RAIN      51  51 100 E12       29.63F FOG
GARRISON         N/A     53  51  93 SE13      29.73F
HETTINGER ARPT CLOUDY    53  51  93 E16       29.63F
$$

NDZ004>008-012>016-024-026-027-054-301500-
NORTHEAST NORTH DAKOTA

CITY           SKY/WX    TMP DP  RH WIND       PRES   REMARKS
GRAND FORKS    CLOUDY    45  42  89 SE13      29.94F
GRND FRKS AFB  CLOUDY    43  43  99 SE10      29.93F
DEVILS LAKE    CLOUDY    46  39  76 SE18      29.82F
$$

NDZ022-023-025-028>030-036>039-047>053-301500-
SOUTHEAST NORTH DAKOTA

CITY           SKY/WX    TMP DP  RH WIND       PRES   REMARKS
FARGO          CLOUDY    47  42  83 SE14      29.92F
JAMESTOWN      CLOUDY    46  43  89 SE16G24   29.82F
$$



USA.gov is the U.S. government's official web portal to all federal, state and local government web resources and services.